Location: Breezy Point Observatory
(38.9725°N, 81.7133°W)
Time: 05:29:48
(UTC-04:00)

Hubble Space Telescope - Visible Passes

Search period start: 19 April 2015 00:00
Search period end: 29 April 2015 00:00
Orbit: 543 x 546 km, 28.5° (Epoch: 18 April)

Date Brightness Start Highest point End Pass type
(mag) Time Alt. Az. Time Alt. Az. Time Alt. Az.
19 Apr 2.5 05:07:01 18° S 05:07:01 18° S 05:09:54 10° SE visible
20 Apr 2.6 04:58:57 19° SSE 04:58:57 19° SSE 05:01:22 10° SE visible
21 Apr 2.7 04:50:54 17° SSE 04:50:54 17° SSE 04:52:46 10° SE visible
22 Apr 3.0 04:42:57 15° SSE 04:42:57 15° SSE 04:44:07 10° SE visible
23 Apr 3.3 04:35:04 11° SE 04:35:04 11° SE 04:35:23 10° SE visible
